Wind_Speed
12 11 11 10 10 9 8 7 6 5 4 2 1 0 1 2 1 1 2 3 4 6 6 6 6 6 6 7 7 6 6 6 6 6 6 6 6 6 6 6 6 6 6 6
13 12 12 12 11 11 10 8 7 7 6 4 2 1 1 1 1 1 1 1 2 3 4 4 5 5 5 5 5 5 5 5 5 5 5 5 5 4 4 4 5 5 4 5
13 13 14 14 13 12 11 10 9 8 8 6 4 3 3 2 2 2 2 2 2 2 2 2 3 3 4 4 4 4 4 4 4 4 3 3 4 4 4 3 4 4 4 4
14 15 15 14 14 12 11 11 10 9 8 7 6 6 5 4 4 3 3 3 3 3 2 1 2 2 2 3 3 3 3 3 3 3 3 3 3 3 3 3 3 3 3 4
15 16 15 15 13 13 12 12 12 11 10 8 7 7 6 5 4 4 4 4 4 4 3 2 0 0 0 0 1 1 1 2 2 3 3 3 3 3 3 3 3 4 3 4
17 17 16 15 14 14 14 13 13 12 11 9 8 8 6 6 6 6 5 4 4 4 4 3 3 2 2 1 1 1 1 2 3 3 4 4 4 4 4 4 4 4 4 5
18 18 17 16 15 16 16 14 13 12 11 9 8 8 7 6 6 6 6 5 5 5 6 5 5 4 4 3 3 3 3 3 4 5 5 5 5 5 6 6 6 6 6 6
19 19 19 18 17 17 16 15 14 13 12 10 10 9 8 7 6 6 7 7 8 7 7 7 6 6 6 6 5 5 5 5 6 6 6 7 7 7 8 8 8 8 8 8
19 19 18 17 17 18 17 17 16 15 14 13 12 10 8 7 7 7 8 8 8 8 7 7 7 7 7 7 7 7 7 8 8 8 8 8 8 8 9 10 10 10 10 9
19 19 18 18 18 19 19 19 19 17 16 15 13 11 10 9 8 9 9 9 10 9 8 9 9 9 9 9 9 8 8 9 10 10 10 10 9 9 10 11 11 12 12 11
21 21 20 19 19 20 20 20 20 19 18 17 15 13 12 11 10 10 10 10 11 11 11 11 11 10 10 10 10 11 10 10 11 11 11 11 11 11 12 11 11 11 12 12
22 22 21 21 20 21 21 21 20 20 19 17 17 15 14 13 12 12 12 12 13 13 13 12 12 12 12 12 12 13 12 12 12 13 13 13 12 12 12 12 13 13 13 13
23 23 22 22 22 22 22 22 21 21 20 19 18 17 16 15 15 15 15 14 15 14 14 14 14 14 14 15 15 15 15 15 14 14 15 15 14 14 14 14 15 15 15 15
24 24 23 23 23 23 23 22 22 22 21 20 19 18 17 17 17 17 17 16 16 16 16 16 17 17 17 18 18 17 17 16 17 17 17 17 17 16 16 15 16 17 17 17
24 25 24 24 24 24 23 22 22 22 22 22 21 21 20 19 18 18 18 19 19 18 19 19 19 20 20 20 19 18 19 19 19 20 20 19 19 19 18 18 18 18 19 19
25 26 25 24 24 24 24 24 23 23 23 23 22 23 23 23 22 21 20 20 20 20 21 21 22 22 23 23 21 20 20 21 21 21 21 20 20 20 21 20 20 21 21 21
27 26 26 25 25 25 26 25 25 25 24 24 23 24 24 25 25 24 23 22 23 23 23 23 23 24 24 24 24 23 22 22 22 21 21 22 22 21 22 22 23 23 23 23
27 27 27 27 27 28 26 25 26 27 27 26 25 25 26 26 27 26 26 26 25 25 25 26 26 25 25 26 26 26 25 25 24 24 23 24 24 24 24 24 24 24 24 24
28 27 27 27 28 28 27 27 27 27 27 27 27 27 27 28 28 28 28 28 28 28 28 27 27 27 27 27 28 28 28 27 27 26 26 26 26 26 27 27 27 26 26 27
28 28 28 28 28 29 28 28 28 28 28 28 28 29 29 29 29 29 30 30 30 30 29 29 29 29 28 29 30 30 30 30 29 28 29 29 29 29 29 29 29 29 29 29
28 28 29 29 29 29 29 29 29 30 30 30 30 30 30 30 30 31 31 31 30 30 30 30 30 30 31 31 31 32 32 31 30 29 30 31 31 31 31 31 31 31 31 31
29 29 30 30 30 31 30 31 31 31 31 31 31 31 31 31 31 32 32 32 31 31 31 31 31 31 32 33 33 33 32 32 31 31 32 32 32 32 33 33 33 33 33 33
30 30 30 31 31 31 31 32 32 32 32 32 33 32 32 32 32 32 32 33 33 33 33 33 33 33 33 34 34 34 33 33 34 33 35 35 34 34 35 35 34 34 34 34
30 30 31 32 32 32 32 33 34 34 34 33 33 33 34 33 33 33 33 33 34 34 34 34 34 35 35 35 34 35 35 35 35 36 36 36 35 35 35 35 35 35 34 34
29 30 31 32 32 33 34 35 35 35 35 35 35 34 34 34 34 34 34 33 33 33 35 35 34 35 34 34 34 34 34 35 36 36 35 34 34 34 35 35 35 35 35 35
30 31 30 30 31 33 34 34 34 34 34 35 35 36 35 35 35 35 36 35 34 34 34 34 34 34 33 33 33 34 34 35 35 35 34 33 32 33 33 34 34 35 35 35
Wind_Direction
216 216 211 205 201 202 207 205 196 190 196 199 220 267 347 13 30 81 93 94 90 80 72 69 64 62 65 72 74 78 82 80 79 75 71 68 64 68 66 65 60 58 60 55
219 218 215 213 209 209 213 210 209 212 220 228 228 244 302 350 302 273 215 137 131 109 89 82 75 67 60 67 75 77 78 78 74 70 64 57 51 53 56 50 48 46 49 41
224 218 219 218 215 218 222 223 222 228 227 239 243 253 278 290 289 265 254 252 222 185 152 111 88 76 67 66 70 73 75 70 62 56 52 49 35 34 43 39 31 32 37 30
221 218 220 220 221 227 226 231 234 238 238 244 251 257 265 281 283 281 266 255 231 215 212 128 88 87 78 69 68 64 70 63 48 34 22 20 12 13 18 16 10 8 9 13
223 223 225 224 228 231 230 236 243 248 243 245 253 260 264 266 275 277 275 249 236 228 236 226 212 309 244 82 74 62 65 36 13 356 342 335 332 336 339 337 336 333 334 338
224 225 227 227 230 233 236 240 246 248 244 249 259 265 268 269 273 276 269 247 238 242 248 249 253 255 241 243 254 263 289 311 314 314 316 314 314 312 309 308 312 312 310 313
223 225 228 231 234 235 237 241 245 243 247 259 262 264 268 270 274 271 255 245 241 249 259 274 268 245 234 244 262 270 280 292 295 296 302 305 302 298 291 290 297 302 299 300
226 225 228 234 239 240 237 239 246 251 252 253 257 266 273 270 269 267 254 252 252 252 261 271 265 247 243 252 263 268 275 283 288 289 290 295 299 296 289 287 288 291 292 292
226 223 227 234 239 240 236 235 243 250 252 257 256 264 268 270 265 262 260 256 256 255 257 262 261 255 251 251 257 266 274 279 283 283 285 286 289 291 287 284 285 285 287 286
225 224 228 233 238 239 239 239 242 246 252 257 259 259 264 263 262 260 262 260 254 252 256 260 260 260 257 255 258 265 273 277 280 283 286 288 286 284 283 285 286 282 281 281
229 229 230 235 239 242 239 239 243 248 251 256 260 259 262 262 265 267 267 264 260 256 264 262 260 267 264 262 266 266 269 276 280 284 286 287 283 280 280 287 289 285 283 283
233 232 232 236 241 243 243 243 247 251 253 257 260 260 263 264 267 270 272 269 269 267 266 267 264 264 268 268 271 271 271 274 278 281 283 283 282 280 282 282 282 282 283 286
235 236 237 239 244 246 246 246 248 251 253 256 258 258 259 264 268 271 272 273 273 268 266 267 268 268 270 270 269 272 274 275 278 279 281 280 283 282 282 281 280 281 282 285
238 241 243 246 248 249 248 247 247 249 253 256 258 259 260 264 269 270 270 271 269 266 262 265 270 272 269 267 268 270 273 274 275 277 279 280 282 282 280 280 280 280 280 284
242 245 247 248 248 245 244 245 247 250 255 260 261 261 263 264 267 268 267 268 268 267 267 268 271 274 273 269 270 270 271 273 274 275 275 276 277 279 280 280 282 282 283 285
243 247 249 248 247 244 242 244 248 253 258 262 263 261 262 262 262 264 265 266 267 268 269 271 273 276 277 273 271 271 271 272 275 274 273 275 278 280 281 282 282 283 284 284
247 250 250 249 247 247 245 245 249 253 256 260 262 263 263 263 262 262 264 266 269 270 271 272 273 273 276 275 273 271 271 273 277 276 275 277 279 280 281 282 282 283 283 283
249 251 251 249 248 248 250 249 251 254 255 258 262 265 266 266 263 263 264 266 268 271 273 273 272 272 273 274 274 272 272 273 276 276 276 277 277 278 279 280 282 282 282 282
250 251 252 252 251 251 250 252 254 256 259 262 264 267 269 267 264 263 264 266 267 270 273 273 270 270 272 274 275 274 274 273 274 273 273 273 274 276 278 279 279 279 279 280
250 251 252 253 253 252 252 254 257 259 260 263 265 267 268 268 265 264 265 267 268 268 270 272 271 270 272 274 274 275 276 273 271 270 270 271 273 275 276 277 276 277 277 278
249 252 254 256 256 255 255 257 259 261 264 265 266 266 268 267 267 266 265 266 267 267 268 270 271 272 273 273 274 274 276 273 271 270 270 272 274 275 275 276 277 277 279 278
249 251 253 255 257 258 258 260 262 264 265 266 266 266 267 267 267 266 265 265 265 265 266 269 271 273 275 274 273 274 275 273 271 270 271 273 274 275 275 276 277 278 279 280
249 252 254 255 258 259 260 262 263 265 267 267 266 266 266 267 267 267 268 267 266 266 268 269 271 273 274 275 274 274 274 272 272 273 273 273 274 275 275 276 276 277 278 280
254 255 256 257 258 260 261 262 263 266 267 268 269 268 267 268 268 268 268 268 268 268 269 271 273 273 273 273 273 273 273 273 274 274 274 274 274 275 274 276 276 276 278 279
256 258 258 259 260 261 262 264 264 265 266 267 268 268 268 268 269 269 269 270 269 268 269 269 271 273 272 272 271 273 276 277 277 277 276 275 274 274 275 276 277 278 278 279
257 260 261 262 262 263 264 264 264 265 265 267 268 268 269 270 271 271 270 270 270 269 269 270 272 273 272 272 272 274 276 277 277 277 276 276 276 276 277 278 278 278 279 280
Height
5893 5896 5897 5898 5899 5901 5901 5902 5903 5903 5903 5903 5903 5903 5903 5903 5903 5903 5902 5902 5901 5901 5901 5900 5900 5899 5898 5897 5897 5897 5897 5897 5896 5896 5896 5895 5895 5894 5893 5893 5892 5891 5891 5890
5893 5894 5896 5897 5898 5899 5900 5901 5902 5902 5902 5902 5902 5903 5903 5903 5903 5902 5902 5902 5902 5902 5901 5901 5901 5900 5899 5899 5898 5898 5897 5897 5897 5897 5897 5896 5895 5894 5894 5893 5893 5892 5892 5891
5891 5894 5894 5895 5897 5898 5899 5901 5901 5902 5902 5902 5902 5903 5903 5903 5902 5902 5902 5902 5902 5902 5902 5901 5901 5901 5900 5900 5899 5899 5898 5898 5898 5897 5897 5896 5895 5895 5894 5894 5893 5893 5892 5891
5889 5891 5892 5894 5895 5897 5898 5899 5900 5900 5901 5901 5902 5902 5903 5902 5902 5902 5902 5902 5901 5901 5901 5901 5901 5901 5900 5900 5900 5899 5899 5898 5898 5898 5897 5896 5896 5895 5894 5894 5893 5893 5892 5891
5887 5889 5890 5892 5894 5895 5897 5897 5898 5899 5899 5900 5900 5901 5902 5901 5901 5902 5901 5901 5901 5901 5901 5901 5901 5901 5900 5900 5900 5899 5899 5898 5898 5898 5897 5896 5896 5895 5894 5894 5893 5892 5892 5891
5885 5886 5888 5890 5892 5893 5895 5896 5896 5897 5897 5899 5899 5899 5900 5900 5900 5900 5900 5900 5900 5900 5900 5900 5900 5900 5900 5900 5899 5899 5899 5898 5898 5897 5896 5896 5895 5894 5894 5893 5892 5891 5891 5890
5882 5884 5886 5888 5889 5891 5892 5894 5895 5895 5895 5897 5897 5897 5899 5899 5899 5899 5899 5899 5899 5899 5899 5899 5899 5899 5899 5899 5899 5898 5898 5897 5897 5896 5895 5895 5894 5893 5892 5892 5891 5890 5889 5889
5879 5881 5883 5885 5887 5888 5889 5891 5893 5893 5894 5895 5895 5895 5897 5897 5897 5897 5897 5897 5898 5898 5898 5898 5898 5898 5898 5897 5897 5897 5897 5896 5895 5894 5893 5893 5892 5892 5891 5890 5889 5888 5888 5887
5875 5878 5880 5882 5883 5884 5886 5887 5889 5891 5891 5892 5893 5894 5895 5895 5895 5895 5895 5896 5896 5896 5896 5896 5896 5896 5896 5896 5896 5895 5895 5894 5893 5893 5891 5891 5890 5889 5888 5888 5887 5886 5885 5885
5872 5875 5877 5878 5880 5881 5883 5884 5886 5887 5888 5889 5890 5891 5892 5892 5893 5893 5893 5893 5893 5894 5894 5894 5894 5894 5894 5894 5893 5893 5893 5892 5891 5890 5889 5888 5887 5886 5885 5885 5884 5883 5883 5882
5868 5871 5873 5875 5876 5877 5879 5881 5882 5884 5885 5886 5887 5890 5890 5890 5890 5890 5890 5890 5890 5891 5892 5891 5891 5891 5891 5891 5891 5890 5890 5889 5889 5888 5887 5886 5884 5883 5882 5881 5881 5880 5879 5879
5864 5867 5869 5871 5872 5873 5875 5876 5878 5880 5881 5882 5884 5888 5886 5886 5887 5887 5887 5887 5888 5888 5888 5888 5888 5888 5888 5888 5888 5887 5886 5886 5885 5885 5883 5882 5880 5880 5879 5878 5877 5876 5876 5875
5859 5862 5865 5867 5869 5870 5871 5872 5874 5876 5877 5878 5880 5884 5882 5883 5883 5884 5884 5884 5884 5884 5885 5885 5885 5885 5885 5884 5884 5883 5882 5882 5881 5880 5879 5878 5877 5876 5875 5874 5873 5872 5871 5871
5854 5857 5860 5863 5864 5865 5866 5868 5869 5871 5872 5873 5875 5877 5878 5878 5879 5880 5880 5880 5880 5880 5880 5880 5880 5880 5880 5879 5879 5878 5877 5876 5875 5875 5875 5874 5873 5871 5870 5870 5869 5868 5867 5866
5849 5851 5854 5856 5858 5859 5861 5863 5864 5866 5867 5868 5870 5872 5873 5874 5874 5874 5875 5875 5875 5875 5875 5875 5875 5875 5875 5874 5873 5873 5872 5871 5870 5870 5869 5868 5868 5867 5866 5865 5864 5863 5862 5861
5844 5846 5848 5849 5851 5853 5855 5857 5859 5860 5862 5863 5864 5866 5867 5868 5868 5869 5870 5870 5870 5870 5870 5869 5869 5869 5869 5868 5868 5867 5866 5865 5865 5864 5863 5862 5862 5861 5860 5859 5858 5857 5856 5855
5838 5840 5842 5844 5845 5847 5849 5851 5853 5854 5856 5857 5857 5859 5860 5861 5862 5863 5863 5864 5864 5864 5864 5863 5863 5863 5862 5861 5861 5861 5860 5859 5858 5857 5856 5856 5855 5854 5854 5853 5851 5850 5849 5848
5832 5833 5835 5837 5839 5840 5845 5845 5847 5848 5849 5850 5851 5852 5853 5854 5855 5856 5856 5857 5857 5857 5857 5856 5856 5855 5855 5854 5853 5853 5852 5851 5851 5850 5849 5848 5847 5847 5846 5845 5844 5843 5841 5840
5825 5827 5829 5830 5832 5834 5837 5838 5840 5841 5842 5843 5844 5845 5845 5846 5847 5848 5848 5849 5849 5849 5849 5848 5848 5847 5847 5846 5845 5844 5844 5843 5842 5841 5841 5840 5840 5839 5838 5837 5836 5835 5833 5832
5818 5820 5822 5824 5825 5827 5831 5831 5832 5835 5835 5836 5837 5837 5838 5838 5839 5840 5840 5840 5840 5840 5840 5840 5839 5839 5838 5837 5836 5836 5835 5834 5833 5832 5832 5831 5831 5830 5829 5828 5827 5826 5825 5824
5811 5813 5815 5816 5817 5819 5822 5824 5825 5827 5829 5829 5829 5829 5830 5830 5831 5831 5831 5831 5831 5832 5831 5831 5830 5830 5829 5828 5827 5827 5826 5825 5824 5822 5822 5822 5821 5821 5820 5819 5818 5817 5816 5815
5804 5806 5807 5809 5810 5814 5815 5816 5817 5818 5819 5819 5820 5820 5820 5821 5821 5821 5821 5822 5822 5822 5822 5822 5822 5821 5820 5819 5818 5817 5817 5816 5815 5814 5813 5812 5812 5811 5810 5809 5808 5807 5806 5805
5796 5799 5800 5802 5805 5805 5806 5807 5808 5809 5810 5810 5810 5811 5811 5811 5811 5811 5812 5812 5812 5812 5812 5812 5812 5811 5811 5809 5808 5808 5807 5806 5805 5804 5803 5802 5801 5801 5800 5798 5798 5797 5796 5795
5789 5790 5792 5794 5795 5796 5797 5798 5799 5800 5800 5801 5801 5801 5801 5801 5801 5801 5802 5802 5802 5802 5802 5802 5801 5801 5800 5799 5798 5797 5797 5796 5795 5794 5793 5792 5791 5790 5789 5788 5787 5787 5786 5785
5781 5782 5783 5785 5787 5787 5788 5788 5789 5790 5790 5790 5791 5791 5791 5791 5791 5791 5791 5792 5791 5791 5791 5791 5790 5790 5789 5789 5788 5787 5786 5785 5784 5783 5782 5781 5780 5780 5779 5778 5777 5776 5775 5774
5773 5774 5775 5776 5777 5777 5778 5779 5779 5779 5780 5780 5780 5780 5780 5781 5781 5781 5781 5781 5781 5781 5780 5780 5779 5779 5778 5778 5778 5777 5776 5775 5774 5773 5772 5771 5770 5769 5768 5767 5766 5765 5764 5763